Time,TemperatureF,DewpointF,PressureIn,WindDirection,WindDirectionDegrees,WindSpeedMPH,WindSpeedGustMPH,Humidity,HourlyPrecipIn,Conditions,Clouds,dailyrainin,SolarRadiationWatts/m^2,SoftwareType,DateUTC
2013-05-31 00:00:00,76.6,71.1,29.49,SSE,148,5.0,13.0,83,0.00,,SKC,0.00,0.00,VWS V14.01,2013-05-31 05:00:00,
2013-05-31 00:01:00,76.6,71.1,29.49,SSE,148,2.0,13.0,83,0.00,,---,0.00,0.00,VWS V14.00,2013-05-31 05:01:00,
2013-05-31 00:06:00,76.5,71.3,29.49,SE,130,5.0,12.0,84,0.00,,---,0.00,0.00,VWS V14.00,2013-05-31 05:06:00,
2013-05-31 00:10:00,76.4,71.2,29.49,SE,132,6.0,12.0,84,0.00,,SKC,0.00,0.00,VWS V14.01,2013-05-31 05:10:00,
2013-05-31 00:11:00,76.4,71.2,29.49,SE,133,6.0,12.0,84,0.00,,---,0.00,0.00,VWS V14.00,2013-05-31 05:11:00,
2013-05-31 00:16:00,76.3,71.1,29.49,ESE,113,7.0,13.0,84,0.00,,---,0.00,0.00,VWS V14.00,2013-05-31 05:16:00,
2013-05-31 00:20:00,76.2,71.0,29.49,SE,131,6.0,13.0,84,0.00,,SKC,0.00,0.00,VWS V14.01,2013-05-31 05:20:00,
2013-05-31 00:21:00,76.3,71.1,29.49,SE,132,5.0,13.0,84,0.00,,---,0.00,0.00,VWS V14.00,2013-05-31 05:21:00,
2013-05-31 00:26:00,76.2,71.4,29.48,SE,136,4.0,12.0,85,0.00,,---,0.00,0.00,VWS V14.00,2013-05-31 05:26:00,
2013-05-31 00:30:00,76.2,71.4,29.48,SE,136,7.0,12.0,85,0.00,,SKC,0.00,0.00,VWS V14.01,2013-05-31 05:30:00,
2013-05-31 00:31:00,76.2,71.4,29.48,SE,136,2.0,12.0,85,0.00,,---,0.00,0.00,VWS V14.00,2013-05-31 05:31:00,
2013-05-31 00:36:00,76.1,71.3,29.49,SE,134,8.0,15.0,85,0.00,,---,0.00,0.00,VWS V14.00,2013-05-31 05:36:00,
2013-05-31 00:40:00,76.1,71.3,29.49,South,169,5.0,15.0,85,0.00,,SKC,0.00,0.00,VWS V14.01,2013-05-31 05:40:00,
2013-05-31 00:41:00,76.1,71.3,29.49,South,169,8.0,15.0,85,0.00,,---,0.00,0.00,VWS V14.00,2013-05-31 05:41:00,
2013-05-31 00:46:00,76.1,71.3,29.49,SSE,153,6.0,9.0,85,0.00,,---,0.00,0.00,VWS V14.00,2013-05-31 05:46:00,
2013-05-31 00:50:00,76.0,71.2,29.49,ESE,116,8.0,14.0,85,0.00,,SKC,0.00,0.00,VWS V14.01,2013-05-31 05:50:00,
2013-05-31 00:51:00,76.0,71.2,29.49,ESE,113,6.0,14.0,85,0.00,,---,0.00,0.00,VWS V14.00,2013-05-31 05:51:00,
2013-05-31 00:56:00,76.0,71.2,29.49,SE,130,7.0,12.0,85,0.00,,---,0.00,0.00,VWS V14.00,2013-05-31 05:56:00,
2013-05-31 01:00:00,75.9,71.1,29.49,SE,133,9.0,16.0,85,0.00,,SKC,0.00,0.00,VWS V14.01,2013-05-31 06:00:00,
2013-05-31 01:01:00,75.9,71.1,29.49,SE,136,5.0,16.0,85,0.00,,---,0.00,0.00,VWS V14.00,2013-05-31 06:01:00,
2013-05-31 01:06:00,75.9,71.1,29.49,SE,140,8.0,14.0,85,0.00,,---,0.00,0.00,VWS V14.00,2013-05-31 06:06:00,
2013-05-31 01:10:00,75.9,71.4,29.49,SE,146,9.0,14.0,86,0.00,,SKC,0.00,0.00,VWS V14.01,2013-05-31 06:10:00,
2013-05-31 01:11:00,75.8,71.3,29.49,SE,145,7.0,14.0,86,0.00,,---,0.00,0.00,VWS V14.00,2013-05-31 06:11:00,
2013-05-31 01:16:00,75.8,71.3,29.49,ESE,114,6.0,14.0,86,0.00,,---,0.00,0.00,VWS V14.00,2013-05-31 06:16:00,
2013-05-31 01:20:00,75.7,71.2,29.49,ESE,123,4.0,14.0,86,0.00,,SKC,0.00,0.00,VWS V14.01,2013-05-31 06:20:00,
2013-05-31 01:21:00,75.7,71.2,29.49,ESE,123,7.0,14.0,86,0.00,,---,0.00,0.00,VWS V14.00,2013-05-31 06:21:00,
2013-05-31 01:26:00,75.7,71.2,29.49,ESE,122,6.0,9.0,86,0.00,,---,0.00,0.00,VWS V14.00,2013-05-31 06:26:00,
2013-05-31 01:30:00,75.7,71.2,29.49,SE,143,7.0,15.0,86,0.00,,SKC,0.00,0.00,VWS V14.01,2013-05-31 06:30:00,
2013-05-31 01:31:00,75.7,71.2,29.49,SE,143,5.0,15.0,86,0.00,,---,0.00,0.00,VWS V14.00,2013-05-31 06:31:00,
2013-05-31 01:36:00,75.6,70.8,29.48,SSE,147,6.0,11.0,85,0.00,,---,0.00,0.00,VWS V14.00,2013-05-31 06:36:00,
2013-05-31 01:40:00,75.6,70.8,29.48,ESE,103,4.0,11.0,85,0.00,,SKC,0.00,0.00,VWS V14.01,2013-05-31 06:40:00,
2013-05-31 01:41:00,75.6,70.8,29.48,SE,140,5.0,11.0,85,0.00,,---,0.00,0.00,VWS V14.00,2013-05-31 06:41:00,
2013-05-31 01:46:00,75.5,70.7,29.48,SE,135,4.0,13.0,85,0.00,,---,0.00,0.00,VWS V14.00,2013-05-31 06:46:00,
2013-05-31 01:50:00,75.4,70.6,29.49,SSE,150,6.0,13.0,85,0.00,,SKC,0.00,0.00,VWS V14.01,2013-05-31 06:50:00,
2013-05-31 01:51:00,75.4,70.6,29.49,SSE,150,4.0,13.0,85,0.00,,---,0.00,0.00,VWS V14.00,2013-05-31 06:51:00,
2013-05-31 01:56:00,75.3,70.5,29.49,ESE,113,14.0,16.0,85,0.00,,---,0.00,0.00,VWS V14.00,2013-05-31 06:56:00,
2013-05-31 02:00:00,75.2,70.4,29.48,SE,130,11.0,16.0,85,0.00,,SKC,0.00,0.00,VWS V14.01,2013-05-31 07:00:00,
2013-05-31 02:01:00,75.2,70.4,29.48,SE,126,7.0,16.0,85,0.00,,---,0.00,0.00,VWS V14.00,2013-05-31 07:01:00,
2013-05-31 02:06:00,75.2,70.7,29.49,SE,133,8.0,14.0,86,0.00,,---,0.00,0.00,VWS V14.00,2013-05-31 07:06:00,
2013-05-31 02:10:00,75.2,70.7,29.48,SE,132,1.0,14.0,86,0.00,,SKC,0.00,0.00,VWS V14.01,2013-05-31 07:10:00,
2013-05-31 02:11:00,75.2,70.7,29.48,SE,132,6.0,14.0,86,0.00,,---,0.00,0.00,VWS V14.00,2013-05-31 07:11:00,
2013-05-31 02:16:00,75.2,70.7,29.48,SE,132,11.0,11.0,86,0.00,,---,0.00,0.00,VWS V14.00,2013-05-31 07:16:00,
2013-05-31 02:20:00,75.2,70.7,29.49,SE,136,2.0,12.0,86,0.00,,SKC,0.00,0.00,VWS V14.01,2013-05-31 07:20:00,
2013-05-31 02:21:00,75.2,70.7,29.49,SE,136,6.0,12.0,86,0.00,,---,0.00,0.00,VWS V14.00,2013-05-31 07:21:00,
2013-05-31 02:26:00,75.2,70.7,29.49,ESE,123,6.0,12.0,86,0.00,,---,0.00,0.00,VWS V14.00,2013-05-31 07:26:00,
2013-05-31 02:30:00,75.2,70.7,29.49,SE,133,6.0,19.0,86,0.00,,SKC,0.00,0.00,VWS V14.01,2013-05-31 07:30:00,
2013-05-31 02:31:00,75.2,70.7,29.49,SSE,151,8.0,12.0,86,0.00,,---,0.00,0.00,VWS V14.00,2013-05-31 07:31:00,
2013-05-31 02:36:00,75.2,70.7,29.49,SE,144,4.0,11.0,86,0.00,,---,0.00,0.00,VWS V14.00,2013-05-31 07:36:00,
2013-05-31 02:40:00,75.1,70.6,29.49,SE,144,6.0,11.0,86,0.00,,SKC,0.00,0.00,VWS V14.01,2013-05-31 07:40:00,
2013-05-31 02:41:00,75.1,70.6,29.49,SE,144,5.0,11.0,86,0.00,,---,0.00,0.00,VWS V14.00,2013-05-31 07:41:00,
2013-05-31 02:46:00,75.1,70.6,29.48,SE,144,4.0,8.0,86,0.00,,---,0.00,0.00,VWS V14.00,2013-05-31 07:46:00,
2013-05-31 02:50:00,75.0,70.5,29.48,SE,134,6.0,9.0,86,0.00,,SKC,0.00,0.00,VWS V14.01,2013-05-31 07:50:00,
2013-05-31 02:51:00,75.0,70.5,29.48,SE,140,9.0,9.0,86,0.00,,---,0.00,0.00,VWS V14.00,2013-05-31 07:51:00,
2013-05-31 02:56:00,75.0,70.5,29.48,SE,133,5.0,11.0,86,0.00,,---,0.00,0.00,VWS V14.00,2013-05-31 07:56:00,
2013-05-31 03:00:00,74.9,70.4,29.48,SE,136,6.0,11.0,86,0.00,,SKC,0.00,0.00,VWS V14.01,2013-05-31 08:00:00,
2013-05-31 03:01:00,75.0,70.5,29.48,SE,136,5.0,11.0,86,0.00,,---,0.00,0.00,VWS V14.00,2013-05-31 08:01:00,
2013-05-31 03:06:00,74.9,70.4,29.48,SE,134,5.0,9.0,86,0.00,,---,0.00,0.00,VWS V14.00,2013-05-31 08:06:00,
2013-05-31 03:10:00,74.9,70.4,29.48,SE,136,6.0,11.0,86,0.00,,SKC,0.00,0.00,VWS V14.01,2013-05-31 08:10:00,
2013-05-31 03:11:00,74.9,70.4,29.48,SE,136,8.0,11.0,86,0.00,,---,0.00,0.00,VWS V14.00,2013-05-31 08:11:00,
2013-05-31 03:16:00,74.9,70.4,29.49,ESE,119,8.0,12.0,86,0.00,,---,0.00,0.00,VWS V14.00,2013-05-31 08:16:00,
2013-05-31 03:20:00,74.8,70.3,29.49,SE,137,5.0,12.0,86,0.00,,SKC,0.00,0.00,VWS V14.01,2013-05-31 08:20:00,
2013-05-31 03:21:00,74.9,70.4,29.49,SE,137,6.0,12.0,86,0.00,,---,0.00,0.00,VWS V14.00,2013-05-31 08:21:00,
2013-05-31 03:26:00,74.8,70.3,29.48,SE,137,4.0,10.0,86,0.00,,---,0.00,0.00,VWS V14.00,2013-05-31 08:26:00,
2013-05-31 03:30:00,74.8,70.7,29.48,SE,135,6.0,10.0,87,0.00,,SKC,0.00,0.00,VWS V14.01,2013-05-31 08:30:00,
2013-05-31 03:31:00,74.8,70.7,29.48,SE,136,5.0,10.0,87,0.00,,---,0.00,0.00,VWS V14.00,2013-05-31 08:31:00,
2013-05-31 03:36:00,74.8,70.7,29.48,SE,133,6.0,11.0,87,0.00,,---,0.00,0.00,VWS V14.00,2013-05-31 08:36:00,
2013-05-31 03:40:00,74.8,70.7,29.48,SE,132,7.0,13.0,87,0.00,,SKC,0.00,0.00,VWS V14.01,2013-05-31 08:40:00,
2013-05-31 03:41:00,74.8,70.7,29.48,SE,132,8.0,13.0,87,0.00,,---,0.00,0.00,VWS V14.00,2013-05-31 08:41:00,
2013-05-31 03:46:00,74.8,70.3,29.48,SSE,152,8.0,13.0,86,0.00,,---,0.00,0.00,VWS V14.00,2013-05-31 08:46:00,
2013-05-31 03:50:00,74.8,70.3,29.48,SSE,151,9.0,13.0,86,0.00,,SKC,0.00,0.00,VWS V14.01,2013-05-31 08:50:00,
2013-05-31 03:51:00,74.8,70.3,29.48,SE,138,6.0,13.0,86,0.00,,---,0.00,0.00,VWS V14.00,2013-05-31 08:51:00,
2013-05-31 03:56:00,74.8,70.3,29.48,SSE,153,5.0,10.0,86,0.00,,---,0.00,0.00,VWS V14.00,2013-05-31 08:56:00,
2013-05-31 04:00:00,74.8,70.3,29.48,SSE,149,5.0,14.0,86,0.00,,SKC,0.00,0.00,VWS V14.01,2013-05-31 09:00:00,
2013-05-31 04:01:00,74.8,70.3,29.48,SSE,149,4.0,14.0,86,0.00,,---,0.00,0.00,VWS V14.00,2013-05-31 09:01:00,
2013-05-31 04:06:00,74.8,70.3,29.48,South,182,5.0,13.0,86,0.00,,---,0.00,0.00,VWS V14.00,2013-05-31 09:06:00,
2013-05-31 04:10:00,74.8,70.3,29.48,SSE,151,8.0,13.0,86,0.00,,SKC,0.00,0.00,VWS V14.01,2013-05-31 09:10:00,
2013-05-31 04:11:00,74.8,70.3,29.48,SSE,152,8.0,13.0,86,0.00,,---,0.00,0.00,VWS V14.00,2013-05-31 09:11:00,
2013-05-31 04:16:00,74.8,70.3,29.48,SSE,155,8.0,9.0,86,0.00,,---,0.00,0.00,VWS V14.00,2013-05-31 09:16:00,
2013-05-31 04:20:00,74.8,70.3,29.48,SSE,157,6.0,15.0,86,0.00,,SKC,0.00,0.00,VWS V14.01,2013-05-31 09:20:00,
2013-05-31 04:21:00,74.8,70.3,29.48,SSE,157,6.0,15.0,86,0.00,,---,0.00,0.00,VWS V14.00,2013-05-31 09:21:00,
2013-05-31 04:26:00,74.8,70.3,29.48,SSE,147,2.0,11.0,86,0.00,,---,0.00,0.00,VWS V14.00,2013-05-31 09:26:00,
2013-05-31 04:30:00,74.7,70.2,29.48,SSE,155,2.0,11.0,86,0.00,,SKC,0.00,0.00,VWS V14.01,2013-05-31 09:30:00,
2013-05-31 04:31:00,74.7,70.2,29.48,SSE,155,6.0,11.0,86,0.00,,---,0.00,0.00,VWS V14.00,2013-05-31 09:31:00,
2013-05-31 04:36:00,74.7,70.2,29.48,SSE,155,4.0,9.0,86,0.00,,---,0.00,0.00,VWS V14.00,2013-05-31 09:36:00,
2013-05-31 04:40:00,74.7,70.2,29.48,SE,145,5.0,9.0,86,0.00,,SKC,0.00,0.00,VWS V14.01,2013-05-31 09:40:00,
2013-05-31 04:41:00,74.7,70.2,29.48,SE,145,5.0,9.0,86,0.00,,---,0.00,0.00,VWS V14.00,2013-05-31 09:41:00,
2013-05-31 04:46:00,74.6,70.1,29.48,SE,146,7.0,9.0,86,0.00,,---,0.00,0.00,VWS V14.00,2013-05-31 09:46:00,
2013-05-31 04:50:00,74.6,70.1,29.48,SSE,157,4.0,11.0,86,0.00,,SKC,0.00,0.00,VWS V14.01,2013-05-31 09:50:00,
2013-05-31 04:51:00,74.6,70.1,29.48,SSE,157,6.0,11.0,86,0.00,,---,0.00,0.00,VWS V14.00,2013-05-31 09:51:00,
2013-05-31 04:56:00,74.6,69.8,29.48,SSE,155,7.0,10.0,85,0.00,,---,0.00,0.00,VWS V14.00,2013-05-31 09:56:00,
2013-05-31 05:00:00,74.6,69.8,29.48,SE,129,9.0,16.0,85,0.00,,SKC,0.00,0.00,VWS V14.01,2013-05-31 10:00:00,
2013-05-31 05:01:00,74.6,69.8,29.48,SE,129,11.0,16.0,85,0.00,,---,0.00,0.00,VWS V14.00,2013-05-31 10:01:00,
2013-05-31 05:06:00,74.6,69.8,29.48,SE,142,6.0,11.0,85,0.00,,---,0.00,0.00,VWS V14.00,2013-05-31 10:06:00,
2013-05-31 05:10:00,74.6,69.8,29.48,East,93,4.0,11.0,85,0.00,,SKC,0.00,0.00,VWS V14.01,2013-05-31 10:10:00,
2013-05-31 05:11:00,74.5,69.7,29.48,SSE,149,6.0,11.0,85,0.00,,---,0.00,0.00,VWS V14.00,2013-05-31 10:11:00,
2013-05-31 05:16:00,74.5,69.7,29.48,South,187,2.0,8.0,85,0.00,,---,0.00,0.00,VWS V14.00,2013-05-31 10:16:00,
2013-05-31 05:20:00,74.5,69.7,29.48,South,188,3.0,8.0,85,0.00,,SKC,0.00,0.00,VWS V14.01,2013-05-31 10:20:00,
2013-05-31 05:21:00,74.5,69.7,29.48,South,184,3.0,8.0,85,0.00,,---,0.00,0.00,VWS V14.00,2013-05-31 10:21:00,
2013-05-31 05:26:00,74.5,69.7,29.48,South,187,0.0,5.0,85,0.00,,---,0.00,0.00,VWS V14.00,2013-05-31 10:26:00,
2013-05-31 05:30:00,74.4,69.6,29.49,South,171,8.0,14.0,85,0.00,,SKC,0.00,0.00,VWS V14.01,2013-05-31 10:30:00,
2013-05-31 05:31:00,74.4,69.6,29.49,SSE,148,2.0,14.0,85,0.00,,---,0.00,0.00,VWS V14.00,2013-05-31 10:31:00,
2013-05-31 05:36:00,74.4,69.6,29.49,South,172,12.0,12.0,85,0.00,,---,0.00,0.00,VWS V14.00,2013-05-31 10:36:00,
2013-05-31 05:40:00,74.3,69.5,29.49,South,179,4.0,12.0,85,0.00,,SKC,0.00,0.00,VWS V14.01,2013-05-31 10:40:00,
2013-05-31 05:41:00,74.3,69.5,29.49,South,182,5.0,12.0,85,0.00,,---,0.00,0.00,VWS V14.00,2013-05-31 10:41:00,
2013-05-31 05:46:00,74.3,69.5,29.49,SSE,163,5.0,10.0,85,0.00,,---,0.00,0.00,VWS V14.00,2013-05-31 10:46:00,
2013-05-31 05:50:00,74.3,69.5,29.49,SSE,148,6.0,14.0,85,0.00,,SKC,0.00,0.00,VWS V14.01,2013-05-31 10:50:00,
2013-05-31 05:51:00,74.3,69.5,29.49,SSE,147,9.0,14.0,85,0.00,,---,0.00,0.00,VWS V14.00,2013-05-31 10:51:00,
2013-05-31 05:56:00,74.3,69.5,29.49,SSE,148,4.0,8.0,85,0.00,,---,0.00,0.00,VWS V14.00,2013-05-31 10:56:00,
2013-05-31 06:00:00,74.2,69.4,29.49,SE,128,4.0,12.0,85,0.00,,SKC,0.00,0.00,VWS V14.01,2013-05-31 11:00:00,
2013-05-31 06:01:00,74.2,69.4,29.49,SE,128,5.0,12.0,85,0.00,,---,0.00,0.00,VWS V14.00,2013-05-31 11:01:00,
2013-05-31 06:06:00,74.2,69.4,29.49,SE,134,4.0,11.0,85,0.00,,---,0.00,0.00,VWS V14.00,2013-05-31 11:06:00,
2013-05-31 06:10:00,74.1,69.3,29.49,SE,127,5.0,16.0,85,0.00,,SKC,0.00,0.00,VWS V14.01,2013-05-31 11:10:00,
2013-05-31 06:11:00,74.1,69.3,29.49,SE,127,7.0,16.0,85,0.00,,---,0.00,0.00,VWS V14.00,2013-05-31 11:11:00,
2013-05-31 06:16:00,74.1,69.0,29.49,SE,140,9.0,13.0,84,0.00,,---,0.00,0.00,VWS V14.00,2013-05-31 11:16:00,
2013-05-31 06:20:00,74.1,69.0,29.49,SE,144,4.0,16.0,84,0.00,,SKC,0.00,0.00,VWS V14.01,2013-05-31 11:20:00,
2013-05-31 06:21:00,74.1,69.0,29.49,SSE,163,6.0,16.0,84,0.00,,---,0.00,0.00,VWS V14.00,2013-05-31 11:21:00,
2013-05-31 06:26:00,74.1,69.0,29.50,SSE,166,6.0,13.0,84,0.00,,---,0.00,0.00,VWS V14.00,2013-05-31 11:26:00,
2013-05-31 06:30:00,74.0,68.9,29.50,SSE,163,7.0,13.0,84,0.00,,SKC,0.00,0.00,VWS V14.01,2013-05-31 11:30:00,
2013-05-31 06:31:00,74.0,68.9,29.50,SSW,209,6.0,13.0,84,0.00,,---,0.00,0.00,VWS V14.00,2013-05-31 11:31:00,
2013-05-31 06:36:00,73.9,68.8,29.49,SSW,207,5.0,14.0,84,0.00,,---,0.00,5.00,VWS V14.00,2013-05-31 11:36:00,
2013-05-31 06:40:00,73.8,68.7,29.49,South,189,4.0,14.0,84,0.00,,SKC,0.00,7.00,VWS V14.01,2013-05-31 11:40:00,
2013-05-31 06:41:00,73.8,68.7,29.49,South,190,2.0,14.0,84,0.00,,---,0.00,7.00,VWS V14.00,2013-05-31 11:41:00,
2013-05-31 06:46:00,73.7,68.6,29.49,South,189,3.0,6.0,84,0.00,,---,0.00,11.00,VWS V14.00,2013-05-31 11:46:00,
2013-05-31 06:50:00,73.6,68.5,29.49,South,182,4.0,8.0,84,0.00,,SKC,0.00,16.00,VWS V14.01,2013-05-31 11:50:00,
2013-05-31 06:51:00,73.6,68.5,29.49,South,182,5.0,8.0,84,0.00,,---,0.00,16.00,VWS V14.00,2013-05-31 11:51:00,
2013-05-31 06:56:00,73.4,68.3,29.49,South,175,0.0,9.0,84,0.00,,---,0.00,21.00,VWS V14.00,2013-05-31 11:56:00,
2013-05-31 07:00:00,73.4,68.6,29.50,South,175,0.0,9.0,85,0.00,,SKC,0.00,25.00,VWS V14.01,2013-05-31 12:00:00,
2013-05-31 07:01:00,73.4,68.6,29.50,South,175,1.0,9.0,85,0.00,,---,0.00,25.00,VWS V14.00,2013-05-31 12:01:00,
2013-05-31 07:06:00,73.3,68.5,29.50,SE,128,9.0,14.0,85,0.00,,---,0.00,32.00,VWS V14.00,2013-05-31 12:06:00,
2013-05-31 07:10:00,73.3,68.5,29.50,SE,130,4.0,14.0,85,0.00,,SKC,0.00,35.00,VWS V14.01,2013-05-31 12:10:00,
2013-05-31 07:11:00,73.3,68.5,29.50,SE,130,2.0,14.0,85,0.00,,---,0.00,33.00,VWS V14.00,2013-05-31 12:11:00,
2013-05-31 07:16:00,73.3,68.5,29.51,SE,130,4.0,7.0,85,0.00,,---,0.00,44.00,VWS V14.00,2013-05-31 12:16:00,
2013-05-31 07:20:00,73.3,68.5,29.50,SE,130,0.0,8.0,85,0.00,,SKC,0.00,49.00,VWS V14.01,2013-05-31 12:20:00,
2013-05-31 07:21:00,73.3,68.5,29.50,SE,130,0.0,8.0,85,0.00,,---,0.00,46.00,VWS V14.00,2013-05-31 12:21:00,
2013-05-31 07:26:00,73.3,68.5,29.50,SW,215,0.0,11.0,85,0.00,,---,0.00,54.00,VWS V14.00,2013-05-31 12:26:00,
2013-05-31 07:30:00,73.3,68.5,29.51,South,175,6.0,11.0,85,0.00,,SKC,0.00,67.00,VWS V14.01,2013-05-31 12:30:00,
2013-05-31 07:31:00,73.3,68.5,29.51,South,175,4.0,11.0,85,0.00,,---,0.00,67.00,VWS V14.00,2013-05-31 12:31:00,
2013-05-31 07:36:00,73.3,68.5,29.51,SE,132,2.0,12.0,85,0.00,,---,0.00,69.00,VWS V14.00,2013-05-31 12:36:00,
2013-05-31 07:40:00,73.4,68.6,29.51,SE,134,5.0,12.0,85,0.00,,SKC,0.00,70.00,VWS V14.01,2013-05-31 12:40:00,
2013-05-31 07:41:00,73.3,68.5,29.51,SE,134,6.0,12.0,85,0.00,,---,0.00,70.00,VWS V14.00,2013-05-31 12:41:00,
2013-05-31 07:46:00,73.4,68.6,29.51,SE,134,6.0,7.0,85,0.00,,---,0.00,69.00,VWS V14.00,2013-05-31 12:46:00,
2013-05-31 07:50:00,73.4,68.6,29.51,SSE,148,5.0,13.0,85,0.00,,SKC,0.00,81.00,VWS V14.01,2013-05-31 12:50:00,
2013-05-31 07:51:00,73.5,68.7,29.51,SSE,148,6.0,13.0,85,0.00,,---,0.00,95.00,VWS V14.00,2013-05-31 12:51:00,
2013-05-31 07:56:00,73.5,68.7,29.51,SSE,148,4.0,6.0,85,0.00,,---,0.00,83.00,VWS V14.00,2013-05-31 12:56:00,
2013-05-31 08:00:00,73.5,68.4,29.51,SW,219,3.0,12.0,84,0.00,,SKC,0.00,79.00,VWS V14.01,2013-05-31 13:00:00,
2013-05-31 08:01:00,73.5,68.4,29.51,SW,219,5.0,12.0,84,0.00,,---,0.00,84.00,VWS V14.00,2013-05-31 13:01:00,
2013-05-31 08:06:00,73.6,68.5,29.52,SSE,167,5.0,12.0,84,0.00,,---,0.00,77.00,VWS V14.00,2013-05-31 13:06:00,
2013-05-31 08:10:00,73.7,68.6,29.52,SW,236,2.0,12.0,84,0.00,,SKC,0.00,248.00,VWS V14.01,2013-05-31 13:10:00,
2013-05-31 08:11:00,73.7,68.6,29.52,SW,236,4.0,12.0,84,0.00,,---,0.00,248.00,VWS V14.00,2013-05-31 13:11:00,
2013-05-31 08:16:00,73.9,68.4,29.52,SW,225,3.0,12.0,83,0.00,,---,0.00,258.00,VWS V14.00,2013-05-31 13:16:00,
2013-05-31 08:20:00,74.2,68.7,29.53,SSE,158,8.0,12.0,83,0.00,,SKC,0.00,309.00,VWS V14.01,2013-05-31 13:20:00,
2013-05-31 08:21:00,74.2,68.7,29.53,SW,220,3.0,12.0,83,0.00,,---,0.00,302.00,VWS V14.00,2013-05-31 13:21:00,
2013-05-31 08:26:00,74.5,69.0,29.52,SSW,213,4.0,9.0,83,0.00,,---,0.00,253.00,VWS V14.00,2013-05-31 13:26:00,
2013-05-31 08:30:00,74.9,69.0,29.52,West,262,2.0,9.0,82,0.00,,SKC,0.00,316.00,VWS V14.01,2013-05-31 13:30:00,
2013-05-31 08:31:00,74.8,68.9,29.52,West,262,1.0,9.0,82,0.00,,---,0.00,316.00,VWS V14.00,2013-05-31 13:31:00,
2013-05-31 08:36:00,75.1,68.9,29.53,SE,136,4.0,12.0,81,0.00,,---,0.00,329.00,VWS V14.00,2013-05-31 13:36:00,
2013-05-31 08:40:00,75.5,69.3,29.52,SW,218,7.0,12.0,81,0.00,,SKC,0.00,352.00,VWS V14.01,2013-05-31 13:40:00,
2013-05-31 08:41:00,75.4,69.2,29.52,WSW,246,11.0,12.0,81,0.00,,---,0.00,352.00,VWS V14.00,2013-05-31 13:41:00,
2013-05-31 08:46:00,75.7,69.1,29.52,SSW,208,4.0,8.0,80,0.00,,---,0.00,362.00,VWS V14.00,2013-05-31 13:46:00,
2013-05-31 08:50:00,76.0,69.4,29.53,SE,145,5.0,10.0,80,0.00,,SKC,0.00,381.00,VWS V14.01,2013-05-31 13:50:00,
2013-05-31 08:51:00,76.0,69.4,29.53,SE,145,7.0,10.0,80,0.00,,---,0.00,380.00,VWS V14.00,2013-05-31 13:51:00,
2013-05-31 08:56:00,76.3,69.3,29.53,SSE,152,5.0,9.0,79,0.00,,---,0.00,410.00,VWS V14.00,2013-05-31 13:56:00,
2013-05-31 09:00:00,76.7,69.3,29.53,SSE,148,7.0,16.0,78,0.00,,SKC,0.00,439.00,VWS V14.01,2013-05-31 14:00:00,
2013-05-31 09:01:00,76.6,69.2,29.53,SSE,150,8.0,16.0,78,0.00,,---,0.00,429.00,VWS V14.00,2013-05-31 14:01:00,
2013-05-31 09:06:00,76.9,69.2,29.52,SSE,147,8.0,12.0,77,0.00,,---,0.00,443.00,VWS V14.00,2013-05-31 14:06:00,
2013-05-31 09:10:00,77.0,69.2,29.53,SSE,165,9.0,15.0,77,0.00,,SKC,0.00,504.00,VWS V14.01,2013-05-31 14:10:00,
2013-05-31 09:11:00,77.0,69.2,29.53,SSE,158,9.0,15.0,77,0.00,,---,0.00,510.00,VWS V14.00,2013-05-31 14:11:00,
2013-05-31 09:16:00,77.1,69.3,29.53,SSE,166,6.0,12.0,77,0.00,,---,0.00,522.00,VWS V14.00,2013-05-31 14:16:00,
2013-05-31 09:20:00,77.4,69.6,29.53,SE,126,15.0,19.0,77,0.00,,SKC,0.00,596.00,VWS V14.01,2013-05-31 14:20:00,
2013-05-31 09:21:00,77.4,69.6,29.53,SSE,155,8.0,14.0,77,0.00,,---,0.00,332.00,VWS V14.00,2013-05-31 14:21:00,
2013-05-31 09:26:00,77.5,69.3,29.53,SSE,158,7.0,17.0,76,0.00,,---,0.00,638.00,VWS V14.00,2013-05-31 14:26:00,
2013-05-31 09:30:00,77.8,69.6,29.54,SSW,193,5.0,17.0,76,0.00,,SKC,0.00,320.00,VWS V14.01,2013-05-31 14:30:00,
2013-05-31 09:31:00,77.8,69.6,29.54,South,189,4.0,17.0,76,0.00,,---,0.00,320.00,VWS V14.00,2013-05-31 14:31:00,
2013-05-31 09:36:00,77.8,69.6,29.54,SSE,155,6.0,13.0,76,0.00,,---,0.00,295.00,VWS V14.00,2013-05-31 14:36:00,
2013-05-31 09:40:00,77.4,69.6,29.55,SE,132,11.0,13.0,77,0.00,,SKC,0.00,327.00,VWS V14.01,2013-05-31 14:40:00,
2013-05-31 09:41:00,77.4,69.6,29.55,SW,223,3.0,13.0,77,0.00,,---,0.00,381.00,VWS V14.00,2013-05-31 14:41:00,
2013-05-31 09:46:00,77.1,69.3,29.55,ESE,123,12.0,19.0,77,0.00,,---,0.00,287.00,VWS V14.00,2013-05-31 14:46:00,
2013-05-31 09:50:00,76.6,69.2,29.55,SSE,162,5.0,19.0,78,0.00,,SKC,0.00,322.00,VWS V14.01,2013-05-31 14:50:00,
2013-05-31 09:51:00,76.6,69.2,29.55,SSE,165,10.0,19.0,78,0.00,,---,0.00,322.00,VWS V14.00,2013-05-31 14:51:00,
2013-05-31 09:56:00,76.3,68.9,29.54,SE,140,5.0,15.0,78,0.00,,---,0.00,306.00,VWS V14.00,2013-05-31 14:56:00,
2013-05-31 10:00:00,76.2,69.2,29.54,SE,141,7.0,15.0,79,0.00,,SKC,0.00,292.00,VWS V14.01,2013-05-31 15:00:00,
2013-05-31 10:01:00,76.2,69.2,29.54,SE,138,7.0,15.0,79,0.00,,---,0.00,288.00,VWS V14.00,2013-05-31 15:01:00,
2013-05-31 10:06:00,76.1,69.1,29.54,South,184,7.0,16.0,79,0.00,,---,0.00,264.00,VWS V14.00,2013-05-31 15:06:00,
2013-05-31 10:10:00,76.1,69.1,29.54,South,174,6.0,16.0,79,0.00,,SKC,0.00,299.00,VWS V14.01,2013-05-31 15:10:00,
2013-05-31 10:11:00,76.1,69.1,29.54,South,177,6.0,16.0,79,0.00,,---,0.00,288.00,VWS V14.00,2013-05-31 15:11:00,
2013-05-31 10:16:00,76.4,69.8,29.54,SSE,153,6.0,11.0,80,0.00,,---,0.00,327.00,VWS V14.00,2013-05-31 15:16:00,
2013-05-31 10:20:00,76.7,69.7,29.54,SSE,154,4.0,14.0,79,0.00,,SKC,0.00,462.00,VWS V14.01,2013-05-31 15:20:00,
2013-05-31 10:21:00,76.6,69.6,29.54,SSE,156,7.0,14.0,79,0.00,,---,0.00,462.00,VWS V14.00,2013-05-31 15:21:00,
2013-05-31 10:26:00,76.9,69.9,29.54,SW,221,6.0,14.0,79,0.00,,---,0.00,392.00,VWS V14.00,2013-05-31 15:26:00,
2013-05-31 10:30:00,77.1,69.7,29.54,South,188,6.0,14.0,78,0.00,,SKC,0.00,424.00,VWS V14.01,2013-05-31 15:30:00,
2013-05-31 10:31:00,77.1,69.7,29.54,SSW,211,2.0,14.0,78,0.00,,---,0.00,366.00,VWS V14.00,2013-05-31 15:31:00,
2013-05-31 10:36:00,77.3,69.9,29.54,SE,132,8.0,16.0,78,0.00,,---,0.00,338.00,VWS V14.00,2013-05-31 15:36:00,
2013-05-31 10:40:00,77.5,70.1,29.55,SE,145,13.0,16.0,78,0.00,,SKC,0.00,475.00,VWS V14.01,2013-05-31 15:40:00,
2013-05-31 10:41:00,77.5,70.1,29.55,SE,138,8.0,16.0,78,0.00,,---,0.00,492.00,VWS V14.00,2013-05-31 15:41:00,
2013-05-31 10:46:00,77.8,70.0,29.54,SE,125,9.0,14.0,77,0.00,,---,0.00,390.00,VWS V14.00,2013-05-31 15:46:00,
2013-05-31 10:50:00,78.2,70.4,29.54,SSW,193,5.0,14.0,77,0.00,,SKC,0.00,388.00,VWS V14.01,2013-05-31 15:50:00,
2013-05-31 10:51:00,78.1,70.3,29.54,South,186,4.0,14.0,77,0.00,,---,0.00,388.00,VWS V14.00,2013-05-31 15:51:00,
2013-05-31 10:56:00,78.4,70.2,29.55,SSE,164,6.0,14.0,76,0.00,,---,0.00,390.00,VWS V14.00,2013-05-31 15:56:00,
2013-05-31 11:00:00,78.4,70.2,29.54,SSE,159,7.0,15.0,76,0.00,,SKC,0.00,434.00,VWS V14.01,2013-05-31 16:00:00,
2013-05-31 11:01:00,78.4,70.2,29.54,SE,146,5.0,15.0,76,0.00,,---,0.00,434.00,VWS V14.00,2013-05-31 16:01:00,
2013-05-31 11:06:00,78.4,70.2,29.54,SSW,210,4.0,12.0,76,0.00,,---,0.00,531.00,VWS V14.00,2013-05-31 16:06:00,
2013-05-31 11:10:00,79.1,70.5,29.54,SSW,201,2.0,19.0,75,0.00,,SKC,0.00,554.00,VWS V14.01,2013-05-31 16:10:00,
2013-05-31 11:11:00,79.1,70.5,29.54,SSE,162,6.0,19.0,75,0.00,,---,0.00,554.00,VWS V14.00,2013-05-31 16:11:00,
2013-05-31 11:16:00,79.4,70.8,29.54,SSE,165,8.0,15.0,75,0.00,,---,0.00,645.00,VWS V14.00,2013-05-31 16:16:00,
2013-05-31 11:20:00,79.4,70.4,29.54,SSW,192,5.0,15.0,74,0.00,,SKC,0.00,494.00,VWS V14.01,2013-05-31 16:20:00,
2013-05-31 11:21:00,79.4,70.4,29.54,SSW,192,7.0,15.0,74,0.00,,---,0.00,478.00,VWS V14.00,2013-05-31 16:21:00,
2013-05-31 11:26:00,79.4,70.8,29.54,SE,125,6.0,17.0,75,0.00,,---,0.00,531.00,VWS V14.00,2013-05-31 16:26:00,
2013-05-31 11:30:00,79.8,71.2,29.54,SSE,163,9.0,17.0,75,0.00,,SKC,0.00,487.00,VWS V14.01,2013-05-31 16:30:00,
2013-05-31 11:31:00,79.8,70.8,29.54,South,186,4.0,17.0,74,0.00,,---,0.00,487.00,VWS V14.00,2013-05-31 16:31:00,
2013-05-31 11:36:00,80.3,71.3,29.53,SE,140,6.0,14.0,74,0.00,,---,0.00,499.00,VWS V14.00,2013-05-31 16:36:00,
2013-05-31 11:40:00,80.5,71.1,29.53,SSE,156,8.0,17.0,73,0.00,,SKC,0.00,557.00,VWS V14.01,2013-05-31 16:40:00,
2013-05-31 11:41:00,80.5,71.1,29.53,SSE,149,7.0,17.0,73,0.00,,---,0.00,557.00,VWS V14.00,2013-05-31 16:41:00,
2013-05-31 11:46:00,80.7,71.2,29.53,SSE,152,5.0,10.0,73,0.00,,---,0.00,445.00,VWS V14.00,2013-05-31 16:46:00,
2013-05-31 11:50:00,80.8,71.3,29.54,SSE,151,7.0,15.0,73,0.00,,SKC,0.00,480.00,VWS V14.01,2013-05-31 16:50:00,
2013-05-31 11:51:00,80.8,70.9,29.54,SSE,153,5.0,15.0,72,0.00,,---,0.00,459.00,VWS V14.00,2013-05-31 16:51:00,
2013-05-31 11:56:00,80.8,71.3,29.54,SSE,162,9.0,14.0,73,0.00,,---,0.00,524.00,VWS V14.00,2013-05-31 16:56:00,
2013-05-31 12:00:00,81.1,71.2,29.54,South,175,4.0,14.0,72,0.00,,SKC,0.00,482.00,VWS V14.01,2013-05-31 17:00:00,
2013-05-31 12:01:00,81.0,71.1,29.54,South,186,5.0,14.0,72,0.00,,---,0.00,482.00,VWS V14.00,2013-05-31 17:01:00,
2013-05-31 12:06:00,81.1,71.2,29.53,SSE,167,6.0,13.0,72,0.00,,---,0.00,482.00,VWS V14.00,2013-05-31 17:06:00,
2013-05-31 12:10:00,81.2,71.3,29.53,SE,139,9.0,16.0,72,0.00,,SKC,0.00,443.00,VWS V14.01,2013-05-31 17:10:00,
2013-05-31 12:11:00,81.2,71.3,29.53,South,179,8.0,16.0,72,0.00,,---,0.00,441.00,VWS V14.00,2013-05-31 17:11:00,
2013-05-31 12:16:00,81.3,71.4,29.53,SE,140,7.0,12.0,72,0.00,,---,0.00,443.00,VWS V14.00,2013-05-31 17:16:00,
2013-05-31 12:20:00,81.5,71.6,29.53,South,169,9.0,14.0,72,0.00,,SKC,0.00,570.00,VWS V14.01,2013-05-31 17:20:00,
2013-05-31 12:21:00,81.5,71.6,29.53,SSW,213,6.0,14.0,72,0.00,,---,0.00,570.00,VWS V14.00,2013-05-31 17:21:00,
2013-05-31 12:26:00,81.7,71.8,29.53,SSE,161,5.0,15.0,72,0.00,,---,0.00,547.00,VWS V14.00,2013-05-31 17:26:00,
2013-05-31 12:30:00,82.4,72.1,29.52,SSE,167,2.0,20.0,71,0.00,,SKC,0.00,1123.00,VWS V14.01,2013-05-31 17:30:00,
2013-05-31 12:31:00,82.3,72.0,29.53,SE,136,11.0,15.0,71,0.00,,---,0.00,1123.00,VWS V14.00,2013-05-31 17:31:00,
2013-05-31 12:36:00,82.7,72.3,29.53,SW,236,11.0,13.0,71,0.00,,---,0.00,543.00,VWS V14.00,2013-05-31 17:36:00,
2013-05-31 12:40:00,82.9,72.1,29.52,SW,227,7.0,13.0,70,0.00,,SKC,0.00,434.00,VWS V14.01,2013-05-31 17:40:00,
2013-05-31 12:41:00,82.8,72.4,29.52,SW,220,6.0,13.0,71,0.00,,---,0.00,543.00,VWS V14.00,2013-05-31 17:41:00,
2013-05-31 12:46:00,83.0,72.6,29.52,SSW,196,4.0,14.0,71,0.00,,---,0.00,1262.00,VWS V14.00,2013-05-31 17:46:00,
2013-05-31 12:50:00,83.3,72.5,29.52,SSE,159,10.0,14.0,70,0.00,,---,0.00,591.00,VWS V14.00,2013-05-31 17:50:00,
2013-05-31 12:55:00,83.7,72.9,29.52,SSE,149,5.0,13.0,70,0.00,,---,0.00,559.00,VWS V14.00,2013-05-31 17:55:00,
2013-05-31 13:00:00,83.9,72.2,29.52,South,180,4.0,13.0,68,0.00,,---,0.00,469.00,VWS V14.00,2013-05-31 18:00:00,
2013-05-31 13:05:00,83.9,72.7,29.51,SSE,160,6.0,15.0,69,0.00,,---,0.00,434.00,VWS V14.00,2013-05-31 18:05:00,
2013-05-31 13:10:00,84.0,72.7,29.51,SSE,165,8.0,15.0,69,0.00,,---,0.00,575.00,VWS V14.00,2013-05-31 18:10:00,
2013-05-31 13:15:00,84.2,72.5,29.51,WSW,239,6.0,13.0,68,0.00,,---,0.00,489.00,VWS V14.00,2013-05-31 18:15:00,
2013-05-31 13:20:00,84.0,72.3,29.51,South,184,10.0,13.0,68,0.00,,SKC,0.00,410.00,VWS V14.01,2013-05-31 18:20:00,
2013-05-31 13:21:00,84.0,72.3,29.51,SE,140,6.0,13.0,68,0.00,,---,0.00,410.00,VWS V14.00,2013-05-31 18:21:00,
2013-05-31 13:26:00,83.9,72.2,29.50,SSE,164,7.0,14.0,68,0.00,,---,0.00,489.00,VWS V14.00,2013-05-31 18:26:00,
2013-05-31 13:30:00,84.1,72.4,29.50,SSE,158,5.0,14.0,68,0.00,,---,0.00,489.00,VWS V14.00,2013-05-31 18:30:00,
2013-05-31 13:35:00,84.4,72.7,29.50,SSE,165,9.0,12.0,68,0.00,,---,0.00,1248.00,VWS V14.00,2013-05-31 18:35:00,
2013-05-31 13:40:00,84.8,72.6,29.50,South,175,5.0,12.0,67,0.00,,SKC,0.00,473.00,VWS V14.01,2013-05-31 18:40:00,
2013-05-31 13:41:00,84.8,72.6,29.50,South,181,4.0,12.0,67,0.00,,---,0.00,473.00,VWS V14.00,2013-05-31 18:41:00,
2013-05-31 13:45:00,85.0,72.8,29.50,SW,217,8.0,14.0,67,0.00,,---,0.00,473.00,VWS V14.00,2013-05-31 18:45:00,
2013-05-31 13:50:00,84.9,72.7,29.50,SSE,163,6.0,14.0,67,0.00,,---,0.00,443.00,VWS V14.00,2013-05-31 18:50:00,
2013-05-31 13:55:00,85.1,73.4,29.49,SSE,159,5.0,12.0,68,0.00,,---,0.00,1155.00,VWS V14.00,2013-05-31 18:55:00,
2013-05-31 14:00:00,85.4,72.8,29.49,SSW,196,5.0,16.0,66,0.00,,---,0.00,1127.00,VWS V14.00,2013-05-31 19:00:00,
2013-05-31 14:05:00,85.6,73.4,29.48,SSW,202,5.0,14.0,67,0.00,,---,0.00,1127.00,VWS V14.00,2013-05-31 19:05:00,
2013-05-31 14:10:00,85.9,73.2,29.48,SE,144,2.0,14.0,66,0.00,,---,0.00,1044.00,VWS V14.00,2013-05-31 19:10:00,
2013-05-31 14:15:00,86.2,73.1,29.47,SSE,157,11.0,14.0,65,0.00,,---,0.00,332.00,VWS V14.00,2013-05-31 19:15:00,
2013-05-31 14:20:00,85.9,73.2,29.47,SSE,156,9.0,14.0,66,0.00,,---,0.00,323.00,VWS V14.00,2013-05-31 19:20:00,
2013-05-31 14:25:00,86.2,73.5,29.47,South,171,6.0,14.0,66,0.00,,---,0.00,1092.00,VWS V14.00,2013-05-31 19:25:00,
2013-05-31 14:30:00,86.3,73.6,29.47,SSE,153,5.0,17.0,66,0.00,,---,0.00,1041.00,VWS V14.00,2013-05-31 19:30:00,
2013-05-31 14:35:00,86.5,73.3,29.47,SSE,156,17.0,17.0,65,0.00,,---,0.00,1027.00,VWS V14.00,2013-05-31 19:35:00,
2013-05-31 14:40:00,86.8,73.6,29.47,SW,231,12.0,19.0,65,0.00,,---,0.00,1005.00,VWS V14.00,2013-05-31 19:40:00,
2013-05-31 14:45:00,87.1,73.9,29.46,SW,236,11.0,15.0,65,0.00,,---,0.00,984.00,VWS V14.00,2013-05-31 19:45:00,
2013-05-31 14:50:00,87.5,73.8,29.46,SSW,205,3.0,20.0,64,0.00,,---,0.00,969.00,VWS V14.00,2013-05-31 19:50:00,
2013-05-31 14:55:00,88.2,74.0,29.45,West,263,4.0,14.0,63,0.00,,---,0.00,958.00,VWS V14.00,2013-05-31 19:55:00,
2013-05-31 15:00:00,88.6,73.9,29.45,SSW,202,13.0,15.0,62,0.00,,---,0.00,949.00,VWS V14.00,2013-05-31 20:00:00,
2013-05-31 15:05:00,88.5,73.3,29.45,South,169,6.0,17.0,61,0.00,,---,0.00,923.00,VWS V14.00,2013-05-31 20:05:00,
2013-05-31 15:10:00,88.3,73.6,29.44,SE,136,7.0,17.0,62,0.00,,---,0.00,954.00,VWS V14.00,2013-05-31 20:10:00,
2013-05-31 15:15:00,88.4,74.2,29.44,South,179,8.0,14.0,63,0.00,,---,0.00,919.00,VWS V14.00,2013-05-31 20:15:00,
2013-05-31 15:20:00,88.9,73.7,29.44,SSE,167,10.0,14.0,61,0.00,,---,0.00,914.00,VWS V14.00,2013-05-31 20:20:00,
2013-05-31 15:25:00,89.3,74.1,29.43,SW,228,5.0,12.0,61,0.00,,---,0.00,900.00,VWS V14.00,2013-05-31 20:25:00,
2013-05-31 15:30:00,89.9,73.7,29.44,SSE,156,6.0,13.0,59,0.00,,---,0.00,888.00,VWS V14.00,2013-05-31 20:30:00,
2013-05-31 15:35:00,90.0,73.8,29.43,South,188,5.0,11.0,59,0.00,,---,0.00,886.00,VWS V14.00,2013-05-31 20:35:00,
2013-05-31 15:40:00,90.0,73.8,29.43,SSE,148,4.0,14.0,59,0.00,,---,0.00,874.00,VWS V14.00,2013-05-31 20:40:00,
2013-05-31 15:45:00,90.1,73.8,29.43,ESE,122,9.0,14.0,59,0.00,,---,0.00,853.00,VWS V14.00,2013-05-31 20:45:00,
2013-05-31 15:50:00,90.2,73.9,29.43,SSE,149,11.0,14.0,59,0.00,,---,0.00,846.00,VWS V14.00,2013-05-31 20:50:00,
2013-05-31 15:55:00,90.1,73.3,29.42,SE,130,13.0,15.0,58,0.00,,---,0.00,835.00,VWS V14.00,2013-05-31 20:55:00,
2013-05-31 16:00:00,90.0,73.8,29.42,SSE,165,4.0,20.0,59,0.00,,---,0.00,812.00,VWS V14.00,2013-05-31 21:00:00,
2013-05-31 16:05:00,90.1,73.3,29.42,WSW,240,8.0,14.0,58,0.00,,---,0.00,812.00,VWS V14.00,2013-05-31 21:05:00,
2013-05-31 16:10:00,90.1,73.3,29.41,SSE,149,7.0,19.0,58,0.00,,---,0.00,802.00,VWS V14.00,2013-05-31 21:10:00,
2013-05-31 16:15:00,90.3,73.5,29.42,SSE,161,8.0,14.0,58,0.00,,---,0.00,793.00,VWS V14.00,2013-05-31 21:15:00,
2013-05-31 16:20:00,90.4,73.6,29.42,SE,126,8.0,14.0,58,0.00,,---,0.00,772.00,VWS V14.00,2013-05-31 21:20:00,
2013-05-31 16:25:00,90.3,73.5,29.41,SSE,147,13.0,14.0,58,0.00,,---,0.00,779.00,VWS V14.00,2013-05-31 21:25:00,
2013-05-31 16:30:00,90.5,73.2,29.41,SW,221,0.0,14.0,57,0.00,,---,0.00,759.00,VWS V14.00,2013-05-31 21:30:00,
2013-05-31 16:35:00,90.9,73.6,29.40,WSW,242,8.0,19.0,57,0.00,,---,0.00,749.00,VWS V14.00,2013-05-31 21:35:00,
2013-05-31 16:40:00,91.5,74.1,29.41,SE,146,11.0,19.0,57,0.00,,---,0.00,735.00,VWS V14.00,2013-05-31 21:40:00,
2013-05-31 16:45:00,91.5,73.1,29.40,SSE,150,7.0,11.0,55,0.00,,---,0.00,714.00,VWS V14.00,2013-05-31 21:45:00,
2013-05-31 16:50:00,91.4,73.5,29.40,SSE,163,7.0,11.0,56,0.00,,---,0.00,705.00,VWS V14.00,2013-05-31 21:50:00,
2013-05-31 16:55:00,91.2,73.3,29.40,WSW,256,7.0,13.0,56,0.00,,---,0.00,686.00,VWS V14.00,2013-05-31 21:55:00,
2013-05-31 17:00:00,91.0,73.1,29.41,SE,138,5.0,13.0,56,0.00,,---,0.00,666.00,VWS V14.00,2013-05-31 22:00:00,
2013-05-31 17:05:00,91.0,73.1,29.40,SSE,155,4.0,13.0,56,0.00,,---,0.00,666.00,VWS V14.00,2013-05-31 22:05:00,
2013-05-31 17:10:00,90.8,72.9,29.40,ESE,118,7.0,14.0,56,0.00,,---,0.00,643.00,VWS V14.00,2013-05-31 22:10:00,
2013-05-31 17:15:00,90.8,72.9,29.40,SE,136,9.0,15.0,56,0.00,,---,0.00,621.00,VWS V14.00,2013-05-31 22:15:00,
2013-05-31 17:20:00,90.8,72.9,29.39,SSE,165,1.0,15.0,56,0.00,,---,0.00,610.00,VWS V14.00,2013-05-31 22:20:00,
2013-05-31 17:25:00,91.0,73.7,29.39,WSW,243,6.0,10.0,57,0.00,,---,0.00,599.00,VWS V14.00,2013-05-31 22:25:00,
2013-05-31 17:30:00,91.3,73.4,29.39,SSE,163,9.0,17.0,56,0.00,,---,0.00,585.00,VWS V14.00,2013-05-31 22:30:00,
2013-05-31 17:35:00,91.1,73.2,29.38,SE,142,8.0,14.0,56,0.00,,---,0.00,566.00,VWS V14.00,2013-05-31 22:35:00,
2013-05-31 17:40:00,90.9,73.6,29.38,SE,124,4.0,14.0,57,0.00,,---,0.00,548.00,VWS V14.00,2013-05-31 22:40:00,
2013-05-31 17:45:00,90.8,73.5,29.38,SSE,163,10.0,17.0,57,0.00,,---,0.00,520.00,VWS V14.00,2013-05-31 22:45:00,
2013-05-31 17:50:00,90.9,73.6,29.38,SSE,152,6.0,17.0,57,0.00,,---,0.00,512.00,VWS V14.00,2013-05-31 22:50:00,
2013-05-31 17:55:00,90.7,72.9,29.38,SSE,157,4.0,17.0,56,0.00,,---,0.00,501.00,VWS V14.00,2013-05-31 22:55:00,
2013-05-31 18:00:00,90.7,72.9,29.38,South,180,7.0,17.0,56,0.00,,---,0.00,478.00,VWS V14.00,2013-05-31 23:00:00,
2013-05-31 18:05:00,90.6,72.8,29.38,South,190,6.0,14.0,56,0.00,,---,0.00,468.00,VWS V14.00,2013-05-31 23:05:00,
2013-05-31 18:10:00,90.8,73.5,29.38,SSW,209,4.0,14.0,57,0.00,,---,0.00,445.00,VWS V14.00,2013-05-31 23:10:00,
2013-05-31 18:15:00,90.8,72.9,29.38,SE,127,9.0,21.0,56,0.00,,---,0.00,429.00,VWS V14.00,2013-05-31 23:15:00,
2013-05-31 18:20:00,90.5,72.7,29.38,South,185,5.0,21.0,56,0.00,,---,0.00,404.00,VWS V14.00,2013-05-31 23:20:00,
2013-05-31 18:25:00,90.4,73.1,29.38,SSE,158,8.0,13.0,57,0.00,,---,0.00,397.00,VWS V14.00,2013-05-31 23:25:00,
2013-05-31 18:30:00,90.3,73.0,29.38,SE,138,5.0,15.0,57,0.00,,---,0.00,376.00,VWS V14.00,2013-05-31 23:30:00,
2013-05-31 18:35:00,90.3,73.5,29.37,South,180,5.0,9.0,58,0.00,,---,0.00,360.00,VWS V14.00,2013-05-31 23:35:00,
2013-05-31 18:40:00,90.3,73.0,29.38,SSE,152,4.0,17.0,57,0.00,,---,0.00,343.00,VWS V14.00,2013-05-31 23:40:00,
2013-05-31 18:45:00,90.1,72.8,29.38,SE,136,9.0,13.0,57,0.00,,---,0.00,322.00,VWS V14.00,2013-05-31 23:45:00,
2013-05-31 18:50:00,90.0,72.7,29.37,SSE,157,6.0,16.0,57,0.00,,---,0.00,301.00,VWS V14.00,2013-05-31 23:50:00,
2013-05-31 18:55:00,90.0,73.2,29.37,SE,145,0.0,12.0,58,0.00,,---,0.00,288.00,VWS V14.00,2013-05-31 23:55:00,
2013-05-31 19:00:00,90.1,73.8,29.37,SSE,150,5.0,12.0,59,0.00,,---,0.00,253.00,VWS V14.00,2013-06-01 00:00:00,
2013-05-31 19:05:00,90.0,73.8,29.37,SE,146,8.0,15.0,59,0.00,,---,0.00,239.00,VWS V14.00,2013-06-01 00:05:00,
2013-05-31 19:10:00,89.8,73.6,29.37,SE,146,8.0,17.0,59,0.00,,---,0.00,225.00,VWS V14.00,2013-06-01 00:10:00,
2013-05-31 19:15:00,89.6,73.4,29.37,SSE,165,5.0,11.0,59,0.00,,---,0.00,218.00,VWS V14.00,2013-06-01 00:15:00,
2013-05-31 19:20:00,89.5,73.8,29.37,SE,143,9.0,14.0,60,0.00,,---,0.00,193.00,VWS V14.00,2013-06-01 00:20:00,
2013-05-31 19:25:00,89.2,73.5,29.37,SE,133,8.0,14.0,60,0.00,,---,0.00,70.00,VWS V14.00,2013-06-01 00:25:00,
2013-05-31 19:30:00,88.8,73.6,29.37,SSE,147,7.0,14.0,61,0.00,,---,0.00,118.00,VWS V14.00,2013-06-01 00:30:00,
2013-05-31 19:35:00,88.5,73.3,29.37,ESE,109,8.0,13.0,61,0.00,,---,0.00,104.00,VWS V14.00,2013-06-01 00:35:00,
2013-05-31 19:40:00,88.3,73.6,29.37,ESE,123,7.0,17.0,62,0.00,,---,0.00,60.00,VWS V14.00,2013-06-01 00:40:00,
2013-05-31 19:45:00,88.1,73.4,29.37,SE,140,5.0,15.0,62,0.00,,---,0.00,97.00,VWS V14.00,2013-06-01 00:45:00,
2013-05-31 19:50:00,87.9,73.7,29.37,SE,131,11.0,15.0,63,0.00,,---,0.00,81.00,VWS V14.00,2013-06-01 00:50:00,
2013-05-31 19:55:00,87.6,73.5,29.37,SE,138,5.0,16.0,63,0.00,,---,0.00,65.00,VWS V14.00,2013-06-01 00:55:00,
2013-05-31 20:00:00,87.3,73.6,29.37,SE,128,5.0,16.0,64,0.00,,---,0.00,51.00,VWS V14.00,2013-06-01 01:00:00,
2013-05-31 20:05:00,87.1,73.9,29.38,SE,144,7.0,13.0,65,0.00,,---,0.00,40.00,VWS V14.00,2013-06-01 01:05:00,
2013-05-31 20:10:00,86.8,73.6,29.38,SE,146,5.0,15.0,65,0.00,,---,0.00,28.00,VWS V14.00,2013-06-01 01:10:00,
2013-05-31 20:15:00,86.6,73.4,29.38,SE,134,9.0,13.0,65,0.00,,---,0.00,21.00,VWS V14.00,2013-06-01 01:15:00,
2013-05-31 20:20:00,86.3,73.6,29.37,SE,140,5.0,13.0,66,0.00,,---,0.00,14.00,VWS V14.00,2013-06-01 01:20:00,
2013-05-31 20:25:00,85.9,73.2,29.38,ESE,123,5.0,9.0,66,0.00,,---,0.00,11.00,VWS V14.00,2013-06-01 01:25:00,
2013-05-31 20:30:00,85.6,73.4,29.38,ESE,121,8.0,11.0,67,0.00,,---,0.00,5.00,VWS V14.00,2013-06-01 01:30:00,
2013-05-31 20:35:00,85.3,73.1,29.38,ESE,113,5.0,13.0,67,0.00,,---,0.00,0.00,VWS V14.00,2013-06-01 01:35:00,
2013-05-31 20:40:00,85.0,73.3,29.38,SE,138,11.0,17.0,68,0.00,,---,0.00,0.00,VWS V14.00,2013-06-01 01:40:00,
2013-05-31 20:45:00,84.8,73.1,29.38,SE,137,4.0,12.0,68,0.00,,---,0.00,0.00,VWS V14.00,2013-06-01 01:45:00,
2013-05-31 20:50:00,84.6,72.9,29.38,ESE,117,6.0,12.0,68,0.00,,---,0.00,0.00,VWS V14.00,2013-06-01 01:50:00,
2013-05-31 20:55:00,84.3,73.0,29.38,SE,126,2.0,11.0,69,0.00,,---,0.00,0.00,VWS V14.00,2013-06-01 01:55:00,
2013-05-31 21:00:00,84.1,73.3,29.38,SE,128,4.0,11.0,70,0.00,,---,0.00,0.00,VWS V14.00,2013-06-01 02:00:00,
2013-05-31 21:05:00,83.8,73.0,29.38,SE,124,5.0,9.0,70,0.00,,---,0.00,0.00,VWS V14.00,2013-06-01 02:05:00,
2013-05-31 21:10:00,83.7,72.9,29.38,SE,130,7.0,11.0,70,0.00,,---,0.00,0.00,VWS V14.00,2013-06-01 02:10:00,
2013-05-31 21:15:00,83.5,73.1,29.38,ESE,115,4.0,11.0,71,0.00,,---,0.00,0.00,VWS V14.00,2013-06-01 02:15:00,
2013-05-31 21:20:00,83.3,72.9,29.38,ESE,121,6.0,11.0,71,0.00,,---,0.00,0.00,VWS V14.00,2013-06-01 02:20:00,
2013-05-31 21:25:00,83.1,72.7,29.38,ESE,123,7.0,9.0,71,0.00,,---,0.00,0.00,VWS V14.00,2013-06-01 02:25:00,
2013-05-31 21:30:00,83.0,72.6,29.38,SE,130,6.0,13.0,71,0.00,,---,0.00,0.00,VWS V14.00,2013-06-01 02:30:00,
2013-05-31 21:35:00,82.9,72.5,29.38,SE,129,8.0,12.0,71,0.00,,---,0.00,0.00,VWS V14.00,2013-06-01 02:35:00,
2013-05-31 21:40:00,82.8,72.0,29.38,SE,126,6.0,12.0,70,0.00,,---,0.00,0.00,VWS V14.00,2013-06-01 02:40:00,
2013-05-31 21:45:00,82.7,72.3,29.38,SE,128,6.0,8.0,71,0.00,,---,0.00,0.00,VWS V14.00,2013-06-01 02:45:00,
2013-05-31 21:50:00,82.5,72.2,29.38,SE,128,4.0,8.0,71,0.00,,---,0.00,0.00,VWS V14.00,2013-06-01 02:50:00,
2013-05-31 21:55:00,82.4,72.1,29.38,SE,129,9.0,9.0,71,0.00,,---,0.00,0.00,VWS V14.00,2013-06-01 02:55:00,
2013-05-31 22:00:00,82.3,72.0,29.38,SE,141,8.0,15.0,71,0.00,,---,0.00,0.00,VWS V14.00,2013-06-01 03:00:00,
2013-05-31 22:05:00,82.2,71.9,29.38,SE,135,9.0,14.0,71,0.00,,---,0.00,0.00,VWS V14.00,2013-06-01 03:05:00,
2013-05-31 22:10:00,82.1,71.8,29.38,SSE,153,15.0,18.0,71,0.00,,---,0.00,0.00,VWS V14.00,2013-06-01 03:10:00,
2013-05-31 22:15:00,82.0,72.1,29.39,SE,129,6.0,14.0,72,0.00,,---,0.00,0.00,VWS V14.00,2013-06-01 03:15:00,
2013-05-31 22:20:00,81.8,72.3,29.38,ESE,121,8.0,14.0,73,0.00,,---,0.00,0.00,VWS V14.00,2013-06-01 03:20:00,
2013-05-31 22:25:00,81.6,72.5,29.38,ESE,117,5.0,14.0,74,0.00,,---,0.00,0.00,VWS V14.00,2013-06-01 03:25:00,
2013-05-31 22:30:00,81.4,72.7,29.38,East,96,9.0,18.0,75,0.00,,---,0.00,0.00,VWS V14.00,2013-06-01 03:30:00,
2013-05-31 22:35:00,81.2,72.9,29.38,SE,146,7.0,14.0,76,0.00,,---,0.00,0.00,VWS V14.00,2013-06-01 03:35:00,
2013-05-31 22:40:00,81.0,73.1,29.38,SSE,156,12.0,20.0,77,0.00,,---,0.00,0.00,VWS V14.00,2013-06-01 03:40:00,
2013-05-31 22:45:00,80.9,73.0,29.38,SE,135,13.0,18.0,77,0.00,,---,0.00,0.00,VWS V14.00,2013-06-01 03:45:00,
2013-05-31 22:50:00,80.6,73.1,29.38,ESE,120,9.0,18.0,78,0.00,,---,0.00,0.00,VWS V14.00,2013-06-01 03:50:00,
2013-05-31 22:55:00,80.4,73.3,29.38,SE,132,11.0,15.0,79,0.00,,---,0.00,0.00,VWS V14.00,2013-06-01 03:55:00,
2013-05-31 23:00:00,80.2,73.5,29.38,SE,124,11.0,15.0,80,0.00,,---,0.00,0.00,VWS V14.00,2013-06-01 04:00:00,
2013-05-31 23:01:00,80.1,73.4,29.38,East,98,14.0,15.0,80,0.00,,---,0.00,0.00,VWS V14.00,2013-06-01 04:01:00,
2013-05-31 23:06:00,79.9,73.2,29.39,SSE,157,7.0,16.0,80,0.00,,---,0.00,0.00,VWS V14.00,2013-06-01 04:06:00,
2013-05-31 23:10:00,79.6,73.3,29.38,ESE,111,6.0,22.0,81,0.00,,SKC,0.00,0.00,VWS V14.01,2013-06-01 04:10:00,
2013-05-31 23:11:00,79.6,73.3,29.38,SSE,158,6.0,22.0,81,0.00,,---,0.00,0.00,VWS V14.00,2013-06-01 04:11:00,
2013-05-31 23:16:00,79.4,73.1,29.38,SE,130,7.0,16.0,81,0.00,,---,0.00,0.00,VWS V14.00,2013-06-01 04:16:00,
2013-05-31 23:20:00,79.2,73.2,29.39,SE,140,6.0,16.0,82,0.00,,SKC,0.00,0.00,VWS V14.01,2013-06-01 04:20:00,
2013-05-31 23:21:00,79.3,73.3,29.39,SE,143,6.0,16.0,82,0.00,,---,0.00,0.00,VWS V14.00,2013-06-01 04:21:00,
2013-05-31 23:26:00,79.1,73.1,29.38,SE,143,4.0,11.0,82,0.00,,---,0.00,0.00,VWS V14.00,2013-06-01 04:26:00,
2013-05-31 23:30:00,78.9,72.9,29.38,ESE,109,7.0,11.0,82,0.00,,SKC,0.00,0.00,VWS V14.01,2013-06-01 04:30:00,
2013-05-31 23:31:00,79.0,73.0,29.38,SSE,164,5.0,11.0,82,0.00,,---,0.00,0.00,VWS V14.00,2013-06-01 04:31:00,
2013-05-31 23:36:00,78.8,72.8,29.38,SE,135,8.0,12.0,82,0.00,,---,0.00,0.00,VWS V14.00,2013-06-01 04:36:00,
2013-05-31 23:40:00,78.6,72.7,29.38,ESE,103,4.0,17.0,82,0.00,,SKC,0.00,0.00,VWS V14.01,2013-06-01 04:40:00,
2013-05-31 23:41:00,78.6,72.7,29.38,East,101,5.0,17.0,82,0.00,,---,0.00,0.00,VWS V14.00,2013-06-01 04:41:00,
2013-05-31 23:46:00,78.5,72.6,29.38,SSE,148,5.0,13.0,82,0.00,,---,0.00,0.00,VWS V14.00,2013-06-01 04:46:00,
2013-05-31 23:50:00,78.4,72.8,29.38,ESE,122,4.0,13.0,83,0.00,,SKC,0.00,0.00,VWS V14.01,2013-06-01 04:50:00,
2013-05-31 23:51:00,78.4,72.8,29.38,SE,124,4.0,13.0,83,0.00,,---,0.00,0.00,VWS V14.00,2013-06-01 04:51:00,
2013-05-31 23:56:00,78.3,72.7,29.38,SE,140,5.0,14.0,83,0.00,,---,0.00,0.00,VWS V14.00,2013-06-01 04:56:00,